| time (UTC) | temp F | wind direction | speed MPH | gust MPH | rain 1hr in | rain 24hr in | rain mn in | humidity % | barometer mb |
| 20260906201404 | 56 | 281 | 0.0 | 0.0 | 0.00 | 0.00 | 0.00 | 69 | 1025.1 |
| 20260906200904 | 56 | 281 | 0.0 | 0.0 | 0.00 | 0.00 | 0.00 | 69 | 1025.2 |
| 20260906200404 | 56 | 281 | 0.0 | 0.0 | 0.00 | 0.00 | 0.00 | 69 | 1025.1 |
| 20260906195904 | 57 | 281 | 0.0 | 0.0 | 0.00 | 0.00 | 0.00 | 68 | 1025.1 |
| 20260906195404 | 57 | 281 | 0.0 | 0.0 | 0.00 | 0.00 | 0.00 | 67 | 1025.1 |
| 20260906194904 | 57 | 281 | 0.0 | 0.0 | 0.00 | 0.00 | 0.00 | 67 | 1025.1 |
| 20260906194404 | 57 | 281 | 0.0 | 0.0 | 0.00 | 0.00 | 0.00 | 67 | 1025.0 |
| 20260906193404 | 58 | 281 | 0.0 | 0.0 | 0.00 | 0.00 | 0.00 | 66 | 1025.1 |
| 20260906192904 | 58 | 281 | 0.0 | 2.0 | 0.00 | 0.00 | 0.00 | 66 | 1025.0 |
| 20260906192404 | 58 | 281 | 1.0 | 2.0 | 0.00 | 0.00 | 0.00 | 65 | 1025.1 |
| 20260906191904 | 58 | 281 | 0.0 | 2.0 | 0.00 | 0.00 | 0.00 | 65 | 1025.1 |
| 20260906191404 | 59 | 281 | 0.0 | 1.0 | 0.00 | 0.00 | 0.00 | 65 | 1025.1 |
| 20260906190904 | 59 | 281 | 0.0 | 0.0 | 0.00 | 0.00 | 0.00 | 64 | 1025.1 |
| 20260906190404 | 59 | 281 | 0.0 | 0.0 | 0.00 | 0.00 | 0.00 | 63 | 1025.1 |
| 20260906185904 | 60 | 281 | 0.0 | 0.0 | 0.00 | 0.00 | 0.00 | 63 | 1025.1 |
| 20260906185404 | 60 | 281 | 0.0 | 0.0 | 0.00 | 0.00 | 0.00 | 62 | 1025.1 |
| 20260906184905 | 60 | 281 | 0.0 | 0.0 | 0.00 | 0.00 | 0.00 | 61 | 1025.1 |
| 20260906184404 | 61 | 281 | 0.0 | 0.0 | 0.00 | 0.00 | 0.00 | 61 | 1025.0 |
| 20260906183904 | 61 | 281 | 0.0 | 1.0 | 0.00 | 0.00 | 0.00 | 60 | 1025.0 |
| 20260906183404 | 62 | 281 | 0.0 | 0.0 | 0.00 | 0.00 | 0.00 | 60 | 1025.0 |
| 20260906182904 | 62 | 281 | 0.0 | 0.0 | 0.00 | 0.00 | 0.00 | 59 | 1025.0 |
| 20260906182404 | 62 | 281 | 0.0 | 0.0 | 0.00 | 0.00 | 0.00 | 58 | 1024.9 |
| 20260906181904 | 63 | 281 | 0.0 | 0.0 | 0.00 | 0.00 | 0.00 | 57 | 1024.8 |
| 20260906181404 | 63 | 281 | 0.0 | 0.0 | 0.00 | 0.00 | 0.00 | 56 | 1024.8 |
| 20260906180904 | 64 | 281 | 0.0 | 0.0 | 0.00 | 0.00 | 0.00 | 56 | 1024.7 |
| 20260906180404 | 64 | 281 | 0.0 | 0.0 | 0.00 | 0.00 | 0.00 | 55 | 1024.7 |
| 20260906175905 | 65 | 281 | 0.0 | 0.0 | 0.00 | 0.00 | 0.00 | 53 | 1024.6 |
| 20260906175404 | 65 | 281 | 0.0 | 0.0 | 0.00 | 0.00 | 0.00 | 53 | 1024.5 |
| 20260906174905 | 65 | 281 | 0.0 | 0.0 | 0.00 | 0.00 | 0.00 | 52 | 1024.4 |
| 20260906174404 | 66 | 281 | 0.0 | 0.0 | 0.00 | 0.00 | 0.00 | 51 | 1024.4 |
| 20260906173904 | 66 | 281 | 0.0 | 0.0 | 0.00 | 0.00 | 0.00 | 51 | 1024.4 |
| 20260906173404 | 66 | 281 | 0.0 | 0.0 | 0.00 | 0.00 | 0.00 | 50 | 1024.3 |
| 20260906172904 | 67 | 281 | 0.0 | 1.0 | 0.00 | 0.00 | 0.00 | 49 | 1024.3 |
| 20260906172404 | 67 | 281 | 1.0 | 2.0 | 0.00 | 0.00 | 0.00 | 49 | 1024.2 |
| 20260906171904 | 67 | 281 | 0.0 | 1.0 | 0.00 | 0.00 | 0.00 | 48 | 1024.2 |
| 20260906171404 | 68 | 281 | 0.0 | 3.0 | 0.00 | 0.00 | 0.00 | 48 | 1024.1 |
| 20260906170905 | 68 | 281 | 0.0 | 2.0 | 0.00 | 0.00 | 0.00 | 47 | 1024.2 |
| 20260906170404 | 68 | 281 | 1.0 | 2.0 | 0.00 | 0.00 | 0.00 | 47 | 1024.1 |
| 20260906165904 | 69 | 281 | 0.0 | 2.0 | 0.00 | 0.00 | 0.00 | 46 | 1024.1 |
| 20260906165404 | 69 | 281 | 1.0 | 2.0 | 0.00 | 0.00 | 0.00 | 46 | 1024.1 |
| 20260906164904 | 69 | 281 | 2.0 | 3.0 | 0.00 | 0.00 | 0.00 | 45 | 1024.1 |
| 20260906163904 | 70 | 284 | 2.0 | 6.0 | 0.00 | 0.00 | 0.00 | 44 | 1024.0 |
| 20260906162904 | 70 | 299 | 1.0 | 8.0 | 0.00 | 0.00 | 0.00 | 43 | 1024.0 |
| 20260906162404 | 71 | 296 | 3.0 | 6.0 | 0.00 | 0.00 | 0.00 | 43 | 1024.0 |
| 20260906161904 | 71 | 295 | 2.0 | 7.0 | 0.00 | 0.00 | 0.00 | 43 | 1023.9 |
| 20260906160904 | 72 | 289 | 3.0 | 8.0 | 0.00 | 0.00 | 0.00 | 42 | 1024.0 |
| 20260906160404 | 72 | 283 | 2.0 | 5.0 | 0.00 | 0.00 | 0.00 | 42 | 1024.0 |
| 20260906155905 | 73 | 291 | 4.0 | 6.0 | 0.00 | 0.00 | 0.00 | 41 | 1024.0 |
| 20260906155404 | 73 | 289 | 2.0 | 6.0 | 0.00 | 0.00 | 0.00 | 40 | 1023.9 |
| 20260906154904 | 73 | 273 | 3.0 | 8.0 | 0.00 | 0.00 | 0.00 | 40 | 1023.9 |
| 20260906154404 | 73 | 255 | 2.0 | 7.0 | 0.00 | 0.00 | 0.00 | 40 | 1024.0 |
| 20260906153404 | 74 | 274 | 3.0 | 7.0 | 0.00 | 0.00 | 0.00 | 39 | 1023.9 |
| 20260906152904 | 74 | 303 | 3.0 | 8.0 | 0.00 | 0.00 | 0.00 | 40 | 1023.9 |
| 20260906152405 | 74 | 230 | 2.0 | 8.0 | 0.00 | 0.00 | 0.00 | 39 | 1023.9 |
| 20260906151904 | 75 | 244 | 3.0 | 9.0 | 0.00 | 0.00 | 0.00 | 38 | 1023.9 |
| 20260906151406 | 75 | 277 | 3.0 | 9.0 | 0.00 | 0.00 | 0.00 | 38 | 1024.0 |
| 20260906150404 | 75 | 301 | 2.0 | 7.0 | 0.00 | 0.00 | 0.00 | 38 | 1024.0 |
| 20260906145904 | 75 | 240 | 6.0 | 9.0 | 0.00 | 0.00 | 0.00 | 39 | 1024.0 |
| 20260906145404 | 75 | 246 | 4.0 | 9.0 | 0.00 | 0.00 | 0.00 | 38 | 1024.1 |
| 20260906144904 | 75 | 243 | 3.0 | 9.0 | 0.00 | 0.00 | 0.00 | 38 | 1023.9 |
| 20260906144405 | 75 | 240 | 6.0 | 10.0 | 0.00 | 0.00 | 0.00 | 38 | 1023.9 |
| 20260906143904 | 75 | 263 | 3.0 | 8.0 | 0.00 | 0.00 | 0.00 | 39 | 1023.9 |
| 20260906143404 | 76 | 288 | 4.0 | 9.0 | 0.00 | 0.00 | 0.00 | 39 | 1024.0 |
| 20260906142904 | 76 | 271 | 4.0 | 8.0 | 0.00 | 0.00 | 0.00 | 37 | 1023.9 |
| 20260906142404 | 76 | 235 | 3.0 | 7.0 | 0.00 | 0.00 | 0.00 | 38 | 1023.9 |
| 20260906141404 | 76 | 277 | 4.0 | 12.0 | 0.00 | 0.00 | 0.00 | 38 | 1023.9 |
| 20260906140405 | 75 | 281 | 3.0 | 9.0 | 0.00 | 0.00 | 0.00 | 37 | 1023.9 |
| 20260906135904 | 75 | 246 | 5.0 | 9.0 | 0.00 | 0.00 | 0.00 | 39 | 1023.9 |
| 20260906135404 | 75 | 284 | 3.0 | 12.0 | 0.00 | 0.00 | 0.00 | 38 | 1023.9 |
| 20260906134904 | 75 | 290 | 4.0 | 9.0 | 0.00 | 0.00 | 0.00 | 39 | 1023.9 |
| 20260906134404 | 74 | 302 | 5.0 | 12.0 | 0.00 | 0.00 | 0.00 | 39 | 1023.9 |
| 20260906133904 | 74 | 284 | 6.0 | 10.0 | 0.00 | 0.00 | 0.00 | 39 | 1024.0 |
| 20260906133404 | 74 | 300 | 5.0 | 8.0 | 0.00 | 0.00 | 0.00 | 40 | 1024.0 |
| 20260906132404 | 73 | 253 | 3.0 | 9.0 | 0.00 | 0.00 | 0.00 | 41 | 1024.0 |
| 20260906130904 | 73 | 308 | 6.0 | 10.0 | 0.00 | 0.00 | 0.00 | 42 | 1023.9 |
| 20260906130404 | 72 | 329 | 3.0 | 7.0 | 0.00 | 0.00 | 0.00 | 43 | 1023.9 |
| 20260906125904 | 72 | 306 | 2.0 | 8.0 | 0.00 | 0.00 | 0.00 | 44 | 1023.9 |
| 20260906125404 | 72 | 308 | 5.0 | 12.0 | 0.00 | 0.00 | 0.00 | 44 | 1023.9 |
| 20260906124904 | 71 | 285 | 6.0 | 13.0 | 0.00 | 0.00 | 0.00 | 44 | 1023.9 |
| 20260906124405 | 71 | 249 | 5.0 | 13.0 | 0.00 | 0.00 | 0.00 | 46 | 1023.9 |
| 20260906123904 | 71 | 250 | 6.0 | 15.0 | 0.00 | 0.00 | 0.00 | 46 | 1023.9 |
| 20260906123404 | 71 | 306 | 3.0 | 12.0 | 0.00 | 0.00 | 0.00 | 44 | 1023.9 |
| 20260906122904 | 71 | 295 | 3.0 | 10.0 | 0.00 | 0.00 | 0.00 | 45 | 1024.1 |
| 20260906122405 | 71 | 294 | 5.0 | 14.0 | 0.00 | 0.00 | 0.00 | 43 | 1024.1 |
| 20260906121905 | 71 | 296 | 7.0 | 15.0 | 0.00 | 0.00 | 0.00 | 44 | 1024.0 |
| 20260906120904 | 71 | 290 | 3.0 | 13.0 | 0.00 | 0.00 | 0.00 | 45 | 1023.9 |
| 20260906120404 | 71 | 306 | 5.0 | 15.0 | 0.00 | 0.00 | 0.00 | 45 | 1024.0 |
| 20260906115904 | 70 | 231 | 5.0 | 13.0 | 0.00 | 0.00 | 0.00 | 45 | 1024.0 |
| 20260906115404 | 70 | 267 | 5.0 | 13.0 | 0.00 | 0.00 | 0.00 | 45 | 1024.0 |
| 20260906114904 | 70 | 241 | 3.0 | 12.0 | 0.00 | 0.00 | 0.00 | 46 | 1024.1 |
| 20260906114405 | 70 | 262 | 4.0 | 13.0 | 0.00 | 0.00 | 0.00 | 46 | 1024.1 |
| 20260906113904 | 69 | 293 | 7.0 | 15.0 | 0.00 | 0.00 | 0.00 | 46 | 1024.1 |
| 20260906113404 | 69 | 247 | 7.0 | 13.0 | 0.00 | 0.00 | 0.00 | 47 | 1024.0 |
| 20260906112904 | 69 | 269 | 4.0 | 9.0 | 0.00 | 0.00 | 0.00 | 47 | 1024.2 |
| 20260906112404 | 69 | 243 | 6.0 | 13.0 | 0.00 | 0.00 | 0.00 | 48 | 1024.3 |
| 20260906111904 | 69 | 276 | 5.0 | 12.0 | 0.00 | 0.00 | 0.00 | 48 | 1024.3 |
| 20260906111405 | 68 | 264 | 5.0 | 12.0 | 0.00 | 0.00 | 0.00 | 48 | 1024.3 |
| 20260906110905 | 68 | 266 | 5.0 | 10.0 | 0.00 | 0.00 | 0.00 | 49 | 1024.3 |
| 20260906110405 | 68 | 297 | 4.0 | 13.0 | 0.00 | 0.00 | 0.00 | 49 | 1024.4 |
| 20260906105404 | 69 | 306 | 3.0 | 9.0 | 0.00 | 0.00 | 0.00 | 49 | 1024.5 |
| 20260906104905 | 69 | 305 | 6.0 | 13.0 | 0.00 | 0.00 | 0.00 | 49 | 1024.5 |
| 20260906104405 | 69 | 285 | 5.0 | 10.0 | 0.00 | 0.00 | 0.00 | 50 | 1024.3 |
| 20260906103905 | 68 | 249 | 5.0 | 12.0 | 0.00 | 0.00 | 0.00 | 50 | 1024.2 |
| 20260906103404 | 68 | 243 | 3.0 | 12.0 | 0.00 | 0.00 | 0.00 | 50 | 1024.2 |
| 20260906102904 | 68 | 248 | 8.0 | 15.0 | 0.00 | 0.00 | 0.00 | 49 | 1024.2 |
| 20260906102405 | 68 | 263 | 5.0 | 10.0 | 0.00 | 0.00 | 0.00 | 49 | 1024.3 |
| 20260906101904 | 68 | 295 | 6.0 | 9.0 | 0.00 | 0.00 | 0.00 | 49 | 1024.3 |
| 20260906101404 | 68 | 248 | 5.0 | 12.0 | 0.00 | 0.00 | 0.00 | 52 | 1024.3 |
| 20260906100905 | 68 | 257 | 6.0 | 17.0 | 0.00 | 0.00 | 0.00 | 51 | 1024.3 |
| 20260906100404 | 68 | 277 | 5.0 | 16.0 | 0.00 | 0.00 | 0.00 | 52 | 1024.2 |
| 20260906095406 | 67 | 270 | 5.0 | 12.0 | 0.00 | 0.00 | 0.00 | 52 | 1024.3 |
| 20260906094905 | 67 | 242 | 3.0 | 12.0 | 0.00 | 0.00 | 0.00 | 52 | 1024.3 |
| 20260906093904 | 67 | 268 | 6.0 | 12.0 | 0.00 | 0.00 | 0.00 | 54 | 1024.4 |
| 20260906092904 | 67 | 271 | 4.0 | 12.0 | 0.00 | 0.00 | 0.00 | 56 | 1024.3 |
| 20260906092405 | 67 | 230 | 5.0 | 12.0 | 0.00 | 0.00 | 0.00 | 56 | 1024.2 |
| 20260906091904 | 66 | 257 | 5.0 | 12.0 | 0.00 | 0.00 | 0.00 | 55 | 1024.2 |
| 20260906091404 | 66 | 290 | 6.0 | 15.0 | 0.00 | 0.00 | 0.00 | 56 | 1024.2 |
| 20260906090904 | 65 | 300 | 7.0 | 16.0 | 0.00 | 0.00 | 0.00 | 57 | 1024.2 |
| 20260906090404 | 65 | 301 | 7.0 | 15.0 | 0.00 | 0.00 | 0.00 | 60 | 1024.2 |
| 20260906085904 | 65 | 261 | 5.0 | 10.0 | 0.00 | 0.00 | 0.00 | 60 | 1024.4 |
| 20260906085405 | 65 | 276 | 7.0 | 12.0 | 0.00 | 0.00 | 0.00 | 59 | 1024.4 |
| 20260906084404 | 66 | 257 | 5.0 | 12.0 | 0.00 | 0.00 | 0.00 | 59 | 1024.2 |
| 20260906083904 | 66 | 244 | 5.0 | 12.0 | 0.00 | 0.00 | 0.00 | 60 | 1024.2 |
| 20260906083404 | 66 | 271 | 3.0 | 12.0 | 0.00 | 0.00 | 0.00 | 59 | 1024.1 |
| 20260906082904 | 66 | 286 | 3.0 | 10.0 | 0.00 | 0.00 | 0.00 | 60 | 1024.0 |
| 20260906082404 | 65 | 281 | 5.0 | 10.0 | 0.00 | 0.00 | 0.00 | 60 | 1024.0 |
| 20260906081904 | 65 | 271 | 6.0 | 10.0 | 0.00 | 0.00 | 0.00 | 60 | 1023.9 |
| 20260906081404 | 64 | 294 | 7.0 | 14.0 | 0.00 | 0.00 | 0.00 | 62 | 1023.9 |
| 20260906080904 | 64 | 276 | 5.0 | 10.0 | 0.00 | 0.00 | 0.00 | 63 | 1024.0 |
| 20260906080404 | 64 | 292 | 3.0 | 8.0 | 0.00 | 0.00 | 0.00 | 64 | 1023.9 |
| 20260906075904 | 64 | 244 | 4.0 | 9.0 | 0.00 | 0.00 | 0.00 | 64 | 1023.9 |
| 20260906075405 | 64 | 251 | 3.0 | 13.0 | 0.00 | 0.00 | 0.00 | 65 | 1023.8 |
| 20260906074904 | 64 | 277 | 5.0 | 10.0 | 0.00 | 0.00 | 0.00 | 65 | 1023.7 |
| 20260906074405 | 64 | 295 | 5.0 | 12.0 | 0.00 | 0.00 | 0.00 | 66 | 1023.7 |
| 20260906073904 | 63 | 289 | 5.0 | 10.0 | 0.00 | 0.00 | 0.00 | 67 | 1023.8 |
| 20260906073404 | 63 | 298 | 5.0 | 12.0 | 0.00 | 0.00 | 0.00 | 68 | 1023.8 |
| 20260906072404 | 62 | 292 | 5.0 | 13.0 | 0.00 | 0.00 | 0.00 | 72 | 1023.7 |
| 20260906071905 | 61 | 284 | 4.0 | 10.0 | 0.00 | 0.01 | 0.00 | 74 | 1023.6 |
| 20260906071404 | 61 | 246 | 5.0 | 10.0 | 0.00 | 0.01 | 0.00 | 75 | 1023.5 |
| 20260906070905 | 60 | 223 | 6.0 | 12.0 | 0.00 | 0.01 | 0.00 | 77 | 1023.5 |
| 20260906070404 | 60 | 251 | 3.0 | 9.0 | 0.00 | 0.01 | 0.00 | 78 | 1023.6 |
| 20260906065904 | 59 | 232 | 6.0 | 9.0 | 0.00 | 0.01 | 0.00 | 80 | 1023.6 |
| 20260906065405 | 58 | 287 | 2.0 | 7.0 | 0.00 | 0.01 | 0.00 | 81 | 1023.6 |
| 20260906064905 | 58 | 275 | 2.0 | 5.0 | 0.00 | 0.02 | 0.00 | 81 | 1023.5 |
| 20260906064404 | 57 | 240 | 2.0 | 8.0 | 0.00 | 0.02 | 0.00 | 82 | 1023.6 |
| 20260906063904 | 57 | 261 | 3.0 | 7.0 | 0.00 | 0.02 | 0.00 | 84 | 1023.5 |
| 20260906063404 | 56 | 236 | 3.0 | 8.0 | 0.00 | 0.02 | 0.00 | 84 | 1023.3 |
| 20260906061904 | 55 | 219 | 2.0 | 3.0 | 0.00 | 0.02 | 0.00 | 86 | 1023.2 |
| 20260906061404 | 55 | 220 | 2.0 | 5.0 | 0.00 | 0.02 | 0.00 | 86 | 1023.2 |
| 20260906060404 | 54 | 232 | 1.0 | 3.0 | 0.00 | 0.02 | 0.00 | 87 | 1023.1 |
| 20260906055904 | 54 | 232 | 2.0 | 3.0 | 0.00 | 0.02 | 0.00 | 88 | 1023.1 |
| 20260906055405 | 53 | 232 | 2.0 | 5.0 | 0.00 | 0.02 | 0.00 | 88 | 1023.1 |
| 20260906054904 | 53 | 212 | 1.0 | 3.0 | 0.00 | 0.03 | 0.00 | 88 | 1023.1 |
| 20260906054404 | 53 | 213 | 2.0 | 5.0 | 0.00 | 0.03 | 0.00 | 88 | 1023.0 |
| 20260906053905 | 53 | 231 | 2.0 | 3.0 | 0.00 | 0.03 | 0.00 | 88 | 1022.9 |
| 20260906053404 | 52 | 232 | 1.0 | 5.0 | 0.00 | 0.03 | 0.00 | 88 | 1022.9 |
| 20260906052904 | 52 | 231 | 1.0 | 3.0 | 0.00 | 0.03 | 0.00 | 88 | 1022.8 |
| 20260906052404 | 52 | 231 | 0.0 | 0.0 | 0.00 | 0.03 | 0.00 | 87 | 1022.8 |
| 20260906051904 | 52 | 231 | 0.0 | 0.0 | 0.00 | 0.04 | 0.00 | 86 | 1022.7 |
| 20260906050904 | 52 | 231 | 0.0 | 0.0 | 0.00 | 0.04 | 0.00 | 85 | 1022.7 |
| 20260906050405 | 52 | 231 | 0.0 | 0.0 | 0.00 | 0.04 | 0.00 | 85 | 1022.5 |
| 20260906045404 | 52 | 231 | 0.0 | 0.0 | 0.00 | 0.04 | 0.00 | 85 | 1022.4 |
| 20260906043404 | 52 | 231 | 0.0 | 0.0 | 0.00 | 0.04 | 0.00 | 84 | 1022.3 |
| 20260906042904 | 52 | 231 | 0.0 | 0.0 | 0.00 | 0.04 | 0.00 | 84 | 1022.3 |
| 20260906042404 | 52 | 231 | 0.0 | 2.0 | 0.00 | 0.04 | 0.00 | 83 | 1022.3 |
| 20260906041904 | 53 | 231 | 1.0 | 3.0 | 0.00 | 0.04 | 0.00 | 83 | 1022.2 |
| 20260906041405 | 53 | 231 | 1.0 | 3.0 | 0.00 | 0.04 | 0.00 | 82 | 1022.1 |
| 20260906040904 | 53 | 232 | 0.0 | 2.0 | 0.00 | 0.04 | 0.00 | 82 | 1022.1 |
| 20260906035904 | 53 | 232 | 1.0 | 2.0 | 0.00 | 0.04 | 0.00 | 81 | 1022.0 |
| 20260906035405 | 53 | 236 | 0.0 | 3.0 | 0.00 | 0.04 | 0.00 | 81 | 1021.9 |
| 20260906034904 | 53 | 236 | 0.0 | 0.0 | 0.00 | 0.04 | 0.00 | 81 | 1021.8 |
| 20260906034404 | 54 | 236 | 0.0 | 2.0 | 0.00 | 0.04 | 0.00 | 81 | 1021.8 |
| 20260906033904 | 54 | 236 | 1.0 | 2.0 | 0.00 | 0.04 | 0.00 | 81 | 1021.8 |
| 20260906032905 | 54 | 236 | 0.0 | 0.0 | 0.00 | 0.04 | 0.00 | 80 | 1021.7 |
| 20260906032404 | 54 | 236 | 1.0 | 2.0 | 0.00 | 0.04 | 0.00 | 80 | 1021.7 |
| 20260906030904 | 55 | 236 | 0.0 | 1.0 | 0.00 | 0.04 | 0.00 | 79 | 1021.6 |
| 20260906030404 | 55 | 236 | 0.0 | 1.0 | 0.00 | 0.04 | 0.00 | 78 | 1021.4 |
| 20260906025404 | 55 | 236 | 0.0 | 2.0 | 0.00 | 0.04 | 0.00 | 78 | 1021.3 |
| 20260906024904 | 56 | 236 | 0.0 | 2.0 | 0.00 | 0.04 | 0.00 | 77 | 1021.4 |
| 20260906024404 | 56 | 236 | 1.0 | 2.0 | 0.00 | 0.04 | 0.00 | 77 | 1021.4 |
| 20260906023904 | 56 | 236 | 0.0 | 0.0 | 0.00 | 0.04 | 0.00 | 77 | 1021.3 |
| 20260906023404 | 56 | 236 | 0.0 | 0.0 | 0.00 | 0.04 | 0.00 | 76 | 1021.3 |
| 20260906022905 | 56 | 236 | 0.0 | 0.0 | 0.00 | 0.04 | 0.00 | 76 | 1021.3 |
| 20260906022404 | 56 | 236 | 0.0 | 2.0 | 0.00 | 0.04 | 0.00 | 76 | 1021.3 |
| 20260906021904 | 56 | 236 | 1.0 | 2.0 | 0.00 | 0.04 | 0.00 | 76 | 1021.2 |
| 20260906021405 | 57 | 236 | 0.0 | 0.0 | 0.00 | 0.04 | 0.00 | 75 | 1021.3 |
| 20260906020904 | 57 | 236 | 0.0 | 0.0 | 0.00 | 0.04 | 0.00 | 75 | 1021.2 |
| 20260906020404 | 57 | 236 | 0.0 | 0.0 | 0.00 | 0.04 | 0.00 | 75 | 1021.2 |
| 20260906015904 | 57 | 236 | 0.0 | 0.0 | 0.00 | 0.04 | 0.00 | 75 | 1021.1 |
| 20260906015404 | 57 | 236 | 0.0 | 2.0 | 0.00 | 0.04 | 0.00 | 75 | 1021.1 |
| 20260906014904 | 57 | 236 | 0.0 | 1.0 | 0.00 | 0.04 | 0.00 | 74 | 1021.0 |
| 20260906014404 | 57 | 236 | 1.0 | 3.0 | 0.00 | 0.04 | 0.00 | 74 | 1021.0 |
| 20260906013904 | 57 | 236 | 2.0 | 5.0 | 0.00 | 0.04 | 0.00 | 74 | 1020.9 |
| 20260906013404 | 57 | 236 | 2.0 | 5.0 | 0.00 | 0.04 | 0.00 | 73 | 1020.9 |
| 20260906012904 | 57 | 228 | 1.0 | 3.0 | 0.00 | 0.04 | 0.00 | 73 | 1020.8 |
| 20260906011904 | 57 | 227 | 1.0 | 3.0 | 0.00 | 0.04 | 0.00 | 73 | 1020.7 |
| 20260906011404 | 57 | 227 | 2.0 | 5.0 | 0.00 | 0.04 | 0.00 | 73 | 1020.6 |
| 20260906010904 | 57 | 215 | 0.0 | 2.0 | 0.00 | 0.04 | 0.00 | 73 | 1020.7 |
| 20260906010405 | 57 | 215 | 2.0 | 3.0 | 0.00 | 0.04 | 0.00 | 73 | 1020.7 |
| 20260906005904 | 57 | 215 | 2.0 | 5.0 | 0.00 | 0.04 | 0.00 | 73 | 1020.6 |
| 20260906004904 | 57 | 236 | 1.0 | 3.0 | 0.00 | 0.04 | 0.00 | 72 | 1020.5 |
| 20260906004404 | 57 | 236 | 2.0 | 3.0 | 0.00 | 0.04 | 0.00 | 72 | 1020.4 |
| 20260906003905 | 58 | 236 | 0.0 | 3.0 | 0.00 | 0.04 | 0.00 | 72 | 1020.3 |
| 20260906003404 | 58 | 236 | 1.0 | 3.0 | 0.00 | 0.04 | 0.00 | 72 | 1020.2 |
| 20260906002904 | 58 | 236 | 1.0 | 3.0 | 0.00 | 0.04 | 0.00 | 72 | 1020.3 |
| 20260906002405 | 58 | 236 | 1.0 | 3.0 | 0.00 | 0.04 | 0.00 | 72 | 1020.3 |
| 20260906001904 | 58 | 236 | 2.0 | 3.0 | 0.00 | 0.04 | 0.00 | 72 | 1020.3 |
| 20260906001405 | 58 | 236 | 2.0 | 5.0 | 0.00 | 0.04 | 0.00 | 72 | 1020.3 |
| 20260906000905 | 58 | 236 | 1.0 | 3.0 | 0.00 | 0.04 | 0.00 | 72 | 1020.3 |
| 20260906000405 | 58 | 235 | 3.0 | 5.0 | 0.00 | 0.04 | 0.00 | 72 | 1020.2 |
| 20260905235905 | 58 | 216 | 2.0 | 3.0 | 0.00 | 0.04 | 0.00 | 72 | 1020.2 |
| 20260905235405 | 58 | 219 | 3.0 | 6.0 | 0.00 | 0.04 | 0.00 | 72 | 1020.1 |
| 20260905234904 | 58 | 244 | 5.0 | 7.0 | 0.00 | 0.04 | 0.00 | 72 | 1020.2 |
| 20260905234404 | 58 | 238 | 3.0 | 5.0 | 0.00 | 0.04 | 0.00 | 72 | 1020.1 |
| 20260905233904 | 58 | 234 | 2.0 | 3.0 | 0.00 | 0.04 | 0.00 | 72 | 1020.1 |
| 20260905232905 | 59 | 234 | 1.0 | 3.0 | 0.00 | 0.04 | 0.00 | 71 | 1020.0 |
| 20260905232404 | 59 | 234 | 2.0 | 3.0 | 0.00 | 0.04 | 0.00 | 71 | 1019.9 |
| 20260905231904 | 59 | 234 | 2.0 | 3.0 | 0.00 | 0.04 | 0.00 | 71 | 1019.9 |
| 20260905230904 | 59 | 234 | 0.0 | 2.0 | 0.00 | 0.04 | 0.00 | 70 | 1019.9 |
| 20260905230404 | 60 | 234 | 0.0 | 0.0 | 0.00 | 0.04 | 0.00 | 69 | 1019.9 |
| 20260905225404 | 60 | 234 | 0.0 | 0.0 | 0.00 | 0.04 | 0.00 | 68 | 1019.9 |
| 20260905224905 | 60 | 234 | 0.0 | 0.0 | 0.00 | 0.04 | 0.00 | 68 | 1019.9 |
| 20260905223905 | 61 | 234 | 0.0 | 1.0 | 0.00 | 0.04 | 0.00 | 67 | 1019.8 |
| 20260905223405 | 61 | 234 | 0.0 | 1.0 | 0.00 | 0.04 | 0.00 | 67 | 1019.7 |
| 20260905222905 | 61 | 234 | 0.0 | 0.0 | 0.00 | 0.04 | 0.00 | 67 | 1019.7 |
| 20260905222404 | 61 | 234 | 0.0 | 1.0 | 0.00 | 0.04 | 0.00 | 66 | 1019.7 |
| 20260905221404 | 62 | 234 | 0.0 | 2.0 | 0.00 | 0.04 | 0.00 | 65 | 1019.6 |
| 20260905220404 | 62 | 234 | 0.0 | 1.0 | 0.00 | 0.04 | 0.00 | 65 | 1019.6 |
| 20260905215905 | 63 | 234 | 0.0 | 2.0 | 0.00 | 0.04 | 0.04 | 65 | 1019.6 |
| 20260905215404 | 63 | 234 | 1.0 | 2.0 | 0.00 | 0.04 | 0.04 | 65 | 1019.5 |
| 20260905214905 | 63 | 234 | 0.0 | 2.0 | 0.00 | 0.04 | 0.04 | 65 | 1019.4 |
| 20260905213904 | 63 | 234 | 1.0 | 3.0 | 0.00 | 0.04 | 0.04 | 65 | 1019.3 |
| 20260905213404 | 63 | 234 | 1.0 | 3.0 | 0.00 | 0.04 | 0.04 | 65 | 1019.3 |
| 20260905212904 | 63 | 234 | 2.0 | 3.0 | 0.00 | 0.04 | 0.04 | 65 | 1019.2 |
| 20260905212405 | 63 | 231 | 3.0 | 5.0 | 0.00 | 0.04 | 0.04 | 65 | 1019.1 |
| 20260905211904 | 63 | 251 | 3.0 | 7.0 | 0.00 | 0.04 | 0.04 | 65 | 1019.0 |
| 20260905211404 | 63 | 241 | 2.0 | 5.0 | 0.00 | 0.04 | 0.04 | 65 | 1019.0 |
| 20260905210904 | 63 | 237 | 3.0 | 5.0 | 0.00 | 0.04 | 0.04 | 66 | 1019.0 |
| 20260905210404 | 63 | 232 | 2.0 | 5.0 | 0.00 | 0.04 | 0.04 | 67 | 1019.0 |
| 20260905205904 | 63 | 222 | 2.0 | 3.0 | 0.00 | 0.04 | 0.04 | 67 | 1018.9 |
| 20260905204904 | 63 | 222 | 2.0 | 6.0 | 0.00 | 0.04 | 0.04 | 67 | 1018.8 |
| 20260905204404 | 63 | 243 | 2.0 | 6.0 | 0.00 | 0.04 | 0.04 | 67 | 1018.8 |
| 20260905203904 | 63 | 233 | 1.0 | 3.0 | 0.00 | 0.04 | 0.04 | 67 | 1018.7 |
| 20260905203404 | 63 | 233 | 0.0 | 1.0 | 0.00 | 0.04 | 0.04 | 68 | 1018.8 |